TimeEDT,TemperatureF,Dew PointF,Humidity,Sea Level PressureIn,VisibilityMPH,Wind Direction,Wind SpeedMPH,Gust SpeedMPH,PrecipitationIn,Events,Conditions,WindDirDegrees,DateUTC
12:12 AM,40.3,32.9,75,30.24,10.0,NNW,4.6,-,N/A,,Mostly Cloudy,330,2013-03-29 04:12:00
12:32 AM,40.3,32.5,74,30.24,10.0,Calm,Calm,-,N/A,,Mostly Cloudy,0,2013-03-29 04:32:00
12:52 AM,39.6,32.2,75,30.24,10.0,Calm,Calm,-,N/A,,Scattered Clouds,0,2013-03-29 04:52:00
1:12 AM,39.2,32.2,76,30.24,10.0,NW,3.5,-,N/A,,Scattered Clouds,310,2013-03-29 05:12:00
1:32 AM,39.0,32.7,78,30.24,10.0,NW,3.5,-,N/A,,Clear,320,2013-03-29 05:32:00
1:52 AM,38.3,32.9,81,30.24,10.0,NNW,3.5,-,N/A,,Clear,340,2013-03-29 05:52:00
2:12 AM,38.7,33.1,80,30.24,10.0,NW,3.5,-,N/A,,Clear,320,2013-03-29 06:12:00
2:32 AM,37.6,32.4,81,30.24,10.0,WNW,3.5,-,N/A,,Clear,300,2013-03-29 06:32:00
2:52 AM,37.9,32.7,81,30.24,10.0,Calm,Calm,-,N/A,,Clear,0,2013-03-29 06:52:00
3:12 AM,38.1,32.7,81,30.24,10.0,NW,3.5,-,N/A,,Clear,320,2013-03-29 07:12:00
3:32 AM,37.6,32.2,81,30.24,10.0,NW,3.5,-,N/A,,Clear,320,2013-03-29 07:32:00
3:52 AM,37.8,32.4,81,30.24,10.0,NNW,4.6,-,N/A,,Clear,330,2013-03-29 07:52:00
4:12 AM,37.4,32.4,82,30.24,10.0,NW,4.6,-,N/A,,Clear,320,2013-03-29 08:12:00
4:32 AM,38.3,32.9,81,30.24,10.0,NW,3.5,-,N/A,,Clear,320,2013-03-29 08:32:00
4:52 AM,37.8,32.9,83,30.24,10.0,NNW,3.5,-,N/A,,Clear,330,2013-03-29 08:52:00
5:12 AM,37.4,32.9,84,30.24,10.0,Calm,Calm,-,N/A,,Clear,0,2013-03-29 09:12:00
5:32 AM,37.4,32.4,82,30.24,10.0,Calm,Calm,-,N/A,,Clear,0,2013-03-29 09:32:00
5:52 AM,37.8,32.4,81,30.24,10.0,NW,3.5,-,N/A,,Clear,320,2013-03-29 09:52:00
5:53 AM,37.4,32.0,81,30.24,10.0,Calm,Calm,-,N/A,,Clear,0,2013-03-29 09:53:00
6:12 AM,35.8,32.0,86,30.24,10.0,Calm,Calm,-,N/A,,Clear,0,2013-03-29 10:12:00
6:32 AM,36.3,32.0,84,30.25,10.0,Calm,Calm,-,N/A,,Clear,0,2013-03-29 10:32:00
6:53 AM,36.7,32.0,83,30.25,10.0,Calm,Calm,-,N/A,,Clear,0,2013-03-29 10:53:00
7:13 AM,37.4,31.8,80,30.26,10.0,Calm,Calm,-,N/A,,Clear,0,2013-03-29 11:13:00
7:33 AM,39.6,31.6,73,30.26,10.0,NW,4.6,-,N/A,,Clear,320,2013-03-29 11:33:00
7:41 AM,39.7,31.6,73,30.26,10.0,NNW,3.5,-,N/A,,Clear,330,2013-03-29 11:41:00
7:53 AM,41.0,32.0,70,30.26,10.0,NW,5.8,-,N/A,,Clear,310,2013-03-29 11:53:00
8:53 AM,46.4,32.0,57,30.27,10.0,NNW,8.1,-,N/A,,Scattered Clouds,340,2013-03-29 12:53:00
9:53 AM,46.4,30.2,53,30.27,10.0,NW,11.5,-,N/A,,Mostly Cloudy,310,2013-03-29 13:53:00
10:56 AM,48.2,28.4,46,30.26,10.0,NW,13.8,23.0,N/A,,Scattered Clouds,320,2013-03-29 14:56:00
11:53 AM,50.0,30.2,47,30.26,10.0,NW,13.8,20.7,N/A,,Scattered Clouds,310,2013-03-29 15:53:00
12:50 PM,51.8,30.2,44,30.24,10.0,NNW,11.5,18.4,N/A,,Scattered Clouds,330,2013-03-29 16:50:00
1:59 PM,55.4,32.0,41,30.21,10.0,NW,10.4,18.4,N/A,,Scattered Clouds,310,2013-03-29 17:59:00
2:48 PM,55.4,32.0,41,30.19,10.0,NW,12.7,18.4,N/A,,Overcast,310,2013-03-29 18:48:00
3:55 PM,55.4,32.0,41,30.18,10.0,NW,12.7,21.9,N/A,,Mostly Cloudy,320,2013-03-29 19:55:00
4:55 PM,53.6,32.0,44,30.17,10.0,NW,6.9,17.3,N/A,,Mostly Cloudy,320,2013-03-29 20:55:00
5:50 PM,53.6,30.2,41,30.18,10.0,NW,8.1,-,N/A,,Mostly Cloudy,320,2013-03-29 21:50:00
6:47 PM,50.0,32.0,50,30.18,10.0,WNW,6.9,-,N/A,,Scattered Clouds,300,2013-03-29 22:47:00
7:55 PM,46.4,33.8,62,30.19,10.0,Calm,Calm,-,N/A,,Clear,0,2013-03-29 23:55:00
8:47 PM,44.6,33.8,66,30.21,10.0,Calm,Calm,-,N/A,,Clear,0,2013-03-30 00:47:00
10:54 PM,41.5,36.5,82,30.23,10.0,Calm,Calm,-,N/A,,Clear,0,2013-03-30 02:54:00
11:14 PM,42.4,36.9,81,30.23,10.0,Calm,Calm,-,N/A,,Scattered Clouds,0,2013-03-30 03:14:00
11:34 PM,42.1,36.9,82,30.23,10.0,Calm,Calm,-,N/A,,Clear,0,2013-03-30 03:34:00
11:54 PM,40.6,36.7,86,30.23,10.0,Calm,Calm,-,N/A,,Clear,0,2013-03-30 03:54:00